Find Starlink 31310

NORAD ID: 59092 Int'l Des: 2024-041 Owner: SPXS Country: US Constellation: starlink operational
LEOCIRCULAR

Live-Position

3D-Globus wird geladen...

Über Starlink 31310

Beschreibung wird geladen...

Nächste Überflüge

Passes for default location (London). Set your location on the main map for personalized predictions.

Höhenverlauf

Loading altitude history...

Zweizeiliger Elementsatz

1 59092U 24041U 26121.04547753 .00001658 00000-0 69744-4 0 9997
2 59092 43.0008 15.4547 0000768 276.2200 83.8565 15.27583068122272
Epoch: 1. Mai 2026 • Age: 22 hours

Aktueller Status

Höhe 486.5 km
Geschwindigkeit 7.63 km/s
Subsatellitenpunkt 42.12°N, 96.89°W
Startdatum 29. Feb. 2024
Alter 2.1 years
Typ internet

Technische Details

Klassifizierung Payload
Masse 730.00 kg
Trockenmasse 700.00 kg
Gesamtmasse 730.00 kg
Länge 0.30 m
Durchmesser 4.10 m
Spannweite 29.00 m
Form Box + pan
Hersteller SPXS
Bus-Typ Starlink V2M
Phasenstatus In Orbit
Besitzer/Staat SPXS/US

Most Searched